Weather Roundup
Issued by NWS

Home | Current Version | Previous Version | Graphics & Text | Print | Product List | Glossary Off
Versions: 1 2 3 4 5 6 7 8 9 10 11 12 13 14 15 16 17 18 19 20 21 22 23 24 25 26 27 28 29 30 31 32 33 34 35 36 37 38 39 40 41 42 43 44 45 46 47 48 49 50

000
NZUS93 KARX 190959
HRRWXR

CURRENT HOURLY OBSERVATIONS ACROSS
MUCH OF THE UPPER MISSISSIPPI VALLEY
NATIONAL WEATHER SERVICE LA CROSSE WI
500 AM CDT THU APR 19 2018


...SOUTHEAST MINNESOTA...


CITY           SKY/WX    TMP DP  RH WIND       PRES   REMARKS
ROCHESTER      FAIR      19  17  92 NW9       30.29R WCI   8
ROCHESTER/MAYO FAIR      26  21  79 CALM      30.31R
WINONA         FAIR      25  23  93 CALM      30.30R
AUSTIN         FAIR      21  18  86 N3        30.29R
ALBERT LEA     FAIR      19  18  93 CALM      30.30R
DODGE CENTER   FAIR      23  18  80 N6        30.30R WCI  16
PRESTON        FAIR      23  19  82 N8        30.28R WCI  14
OWATONNA       FAIR      12  10  92 CALM      30.32R
FARIBAULT      NOT AVBL
$$

...ELSEWHERE IN MINNESOTA...


CITY           SKY/WX    TMP DP  RH WIND       PRES   REMARKS
MINNEAPOLIS    FAIR      27  17  66 NW8       30.35R WCI  19
INTNL FALLS    FAIR      21  18  88 CALM      30.34R
DULUTH         FAIR      26  11  52 N7        30.30R WCI  18
RED WING       FAIR      25  16  68 CALM      30.32R
REDWOOD FALLS  CLOUDY    31  16  54 NW3       30.37R
MANKATO        FAIR      24  20  84 N8        30.35R WCI  15
WORTHINGTON    CLOUDY    26  16  65 N12       30.34R WCI  16
FAIRMONT       PTCLDY    22  17  81 NW8       30.35R WCI  12
$$

...SOUTHWEST WISCONSIN...


CITY           SKY/WX    TMP DP  RH WIND       PRES   REMARKS
LA CROSSE      FAIR      25  23  92 N8        30.29R WCI  16
PRAIRIE DU CHI FAIR      28  27  96 CALM      30.25R FOG
BOSCOBEL       FAIR      26  23  88 CALM      30.27R
LONE ROCK      NOT AVBL
PLATTEVILLE    FAIR      28  28  97 N9        30.21R WCI  20
FORT MC COY    FAIR      14  12  94 CALM      30.27R
MAUSTON-NEW LI FAIR      23  19  86 NW3       30.23R
VIROQUA        FAIR      25  24  96 N5        30.23R WCI  19
WIS DELLS      FAIR      23  22  96 CALM      30.21R
$$

...ELSEWHERE IN WISCONSIN...


CITY           SKY/WX    TMP DP  RH WIND       PRES   REMARKS
MILWAUKEE      FAIR      32  23  69 N10       30.13R WCI  24
MADISON        FAIR      25  21  85 N8        30.19R WCI  16
GREEN BAY      FAIR      32  20  61 N12       30.17R WCI  23
EAU CLAIRE     NOT AVBL
BLACK RVR FLS  FAIR      12  10  91 CALM      30.26R
MEDFORD        FAIR      26  14  59 N7        30.22R WCI  18
WAUSAU         FAIR      26  16  65 NW7       30.20R WCI  18
WIS RAPIDS     FAIR      23  13  65 NW5       30.24R WCI  17
MARSHFIELD     FAIR      24  13  62 NW7       30.22R WCI  16
RICE LAKE      FAIR      25  15  64 CALM      30.31R
$$

...NORTHEAST IOWA...


CITY           SKY/WX    TMP DP  RH WIND       PRES   REMARKS
WATERLOO       FAIR      26  23  88 N9        30.28R WCI  17
DUBUQUE        FAIR      28  25  88 N6        30.22R WCI  22
DECORAH        FAIR      27  25  93 NW7       30.25R WCI  19
MASON CITY     CLOUDY    18  16  92 N7        30.31R WCI   9
CHARLES CITY   FAIR      23  23 100 N12       30.29R WCI  12
OELWEIN        FAIR      19  19 100 NW8       30.28R WCI   9
$$

...ELSEWHERE IN IOWA...


CITY           SKY/WX    TMP DP  RH WIND       PRES   REMARKS
DES MOINES     PTCLDY    32  29  88 N7        30.29R WCI  26
IOWA CITY      CLOUDY    34  30  85 N8        30.26R WCI  27
FORT DODGE     CLEAR     28  24  85 N6        30.32R WCI  22
MARSHALLTOWN   CLOUDY    28  26  92 N8        30.27R WCI  20
CEDAR RAPIDS   MOCLDY    30  28  92 NW9       30.24R WCI  22
$$

...NORTHERN ILLINOIS...


CITY           SKY/WX    TMP DP  RH WIND       PRES   REMARKS
CHICAGO-OHARE  FAIR      34  32  92 N10       30.11R WCI  26
CHICAGO-MIDWAY FAIR      36  33  89 N12       30.11R WCI  28
MOLINE         CLOUDY    35  31  85 NW9       30.21R WCI  28
ROCKFORD       FAIR      30  25  81 N9        30.18R WCI  22
PEORIA         CLOUDY    35  31  85 N7        30.18R WCI  29
$$

NOTE: "FAIR" INDICATES FEW OR NO CLOUDS BELOW 12,000 FEET WITH NO
SIGNIFICANT WEATHER AND/OR OBSTRUCTIONS TO VISIBILITY. WIND
SPEEDS ARE IN MILES-PER-HOUR.




USA.gov is the U.S. government's official web portal to all federal, state and local government web resources and services.